Simultaneous Nadir Overpasses (SNOs) Predictions

Prediction of SNOs between GOES-15 and FY3D Satellite Orbit:

Table of predicted SNOs for the next 14.0 days since TLE Epoch: 6/11/2022
Index Date Time (GOES-15) GOES-15 Lat,Lon FY3D Lat,Lon Distance(km) Time Diff (sec)
1 06/11/2022 22:11:36 0.03,-128.29 0.69,-125.36 334.84 80
2 06/13/2022 10:31:16 -0.06,-128.33 0.45,-130.75 275.27 80
3 06/14/2022 10:15:31 -0.05,-128.34 -0.49,-126.28 234.52 80
4 06/15/2022 22:35:18 0.08,-128.35 -0.67,-131.70 382.12 80
5 06/16/2022 22:19:34 0.07,-128.36 0.33,-127.24 127.65 80
6 06/18/2022 10:39:13 -0.10,-128.40 0.87,-132.63 482.72 80
7 06/19/2022 10:23:28 -0.08,-128.41 -0.14,-128.17 26.83 80
8 06/21/2022 22:24:50 0.10,-128.42 -0.07,-129.12 80.52 80
9 06/22/2022 22:09:06 0.08,-128.43 0.94,-124.67 429.19 80
10 06/24/2022 10:28:45 -0.12,-128.46 0.26,-130.05 181.29 80
